Simultaneous Nadir Overpasses (SNOs) Predictions

Prediction of SNOs between NOAA-19 and TERRA Satellite Orbit:

Table of predicted SNOs for the next 14.0 days since TLE Epoch: 10/31/2020
Index Date (NOAA-19) Time (NOAA-19) Lat,Lon (NOAA-19) SZA (NOAA-19 ) Date (TERRA) Time (TERRA) Lat,Lon (TERRA) SZA (TERRA ) Distance(km) Time Diff (sec)
1 11/01/2020 02:46:37 79.82, 168.75 96.05 11/01/2020 02:46:37 79.80, 168.71 96.02 2.84 0
2 11/03/2020 08:19:55 -79.84, -94.66 83.25 11/03/2020 08:20:21 -79.82, -94.57 83.25 2.77 26
3 11/03/2020 09:10:51 79.81, 72.94 96.77 11/03/2020 09:09:47 79.82, 73.07 96.77 2.83 64
4 11/05/2020 13:53:06 79.83, 2.17 97.44 11/05/2020 13:54:04 79.83, 2.11 97.46 1.08 58
5 11/05/2020 14:44:09 -79.81, 169.66 82.55 11/05/2020 14:43:32 -79.80, 169.52 82.59 3.05 37
6 11/07/2020 20:17:20 79.82, -93.66 98.11 11/07/2020 20:17:14 79.85, -93.57 98.14 3.48 6
7 11/10/2020 01:50:39 -79.83, 2.99 81.26 11/10/2020 01:50:59 -79.83, 2.86 81.26 2.51 20
8 11/10/2020 02:41:34 79.81, 170.50 98.76 11/10/2020 02:40:25 79.82, 170.45 98.74 1.85 69
9 11/12/2020 07:23:49 79.84, 99.71 99.35 11/12/2020 07:24:41 79.87, 99.72 99.40 3.29 52
